Preview of NWS' New Version of Forecast
This preview is not operational and should not be used for support decisions.

Regional Weather Roundup (RWR)

Issued by National Weather Service (NWS)

                            
000
ASCA42 TJSJ 181110
RWRPR 
PUERTO RICO/U.S. VIRGIN ISLANDS HOURLY WEATHER ROUNDUP
NATIONAL WEATHER SERVICE SAN JUAN PR
700 AM AST MON MAR 18 2019

PRZ001>002-007>008-010-181200-
PUERTO RICO
  
CITY           SKY/WX    TMP DP  RH WIND       PRES   REMARKS
SAN JUAN LMM   PTCLDY    75  68  78 CALM      30.00R                  
AGUADILLA      CLEAR     66  63  88 S5        30.02                   
$$

VIZ001>002-181200-
U.S. VIRGIN ISLANDS
  
CITY           SKY/WX    TMP DP  RH WIND       PRES   REMARKS
CHARLOTTE AMA  CLEAR     77  66  69 E13       30.00R                  
CHRISTIANSTED  CLEAR     75  64  69 E17       30.02R                  
$$

HOURLY WEATHER ROUNDUP FOR THE NEWS MEDIA
  
CITY           SKY/WX    TMP DP  RH WIND       PRES   REMARKS
ORLANDO        CLOUDY    60  51  72 N12       30.07R                  
NEW YORK       FAIR      31  13  47 N5        30.28R WCI  26          
NEWARK         FAIR      31  15  52 W5        30.27R WCI  26          
CHICAGO        FAIR      28  24  85 NW7       30.33R WCI  21          
HARTFORD       FAIR      20  15  81 CALM      30.22R                  
BOSTON         FAIR      31  11  43 W9        30.22R WCI  23          
DALLAS         PTCLDY    44  37  76 CALM      30.28R                  
PHILADELPHIA   MOCLDY    34  14  43 E8        30.28R WCI  27          
LOS ANGELES    PTCLDY    58  52  80 CALM      29.97F                  
WASHINGTON DC  MOCLDY    36  24  62 CALM      30.24R